FENGYUN 1C DEB

Satellite information

Favourite Embed

Satellite Type and Status

DEBRISIN ORBIT

Key statistics

Satellite FENGYUN 1C DEB at a glance.

Uptime

9661

Days in orbit

Revolutions

≈ 14.5

Per day

Orbit

SSO

Sun Synchronous Orbit

Inclination

98.9

Latest

Satellite identification and parameters

Extended collection of information and parameters for FENGYUN 1C DEB.

Object identification

Identified? True

Debris? True

Object name: FENGYUN 1C DEB

International designator: 1999-025BGU

Object number (NORAD): 31098

Object ID (CCSDS): 31098

Country: PEOPLES REPUBLIC OF CHINA (PRC)

Current information (Y/N): Y

RCS size: SMALL

Orbital parameters

Period: 99.334 minutes

Inclination: 98.871 deg

SMA: 7104.913 km

Apoapsis: 735.605 km

Periapsis: 717.95 km

RAAN: 48.896 deg

Eccentricy: 0.00124246

Argument of periapsis: 58.7299 deg

Mean anomaly: 301.5108 deg

Mean motion: 14.49654959 rev/day

Mean motion (dot): 0.00019367 rev/day2

B* drag term: 0.0050310915 1/REarth

Two-line elements (TLE)

Creation date: Oct. 21, 2025, 3:26 a.m.

Reference frame: TEME

Reference center: EARTH

Epoch: Oct. 20, 2025, 6:29 p.m. UTC

TLE line 0: 0 FENGYUN 1C DEB

TLE line 1: 1 31098U 99025BGU 25293.77033669 .00019367 00000-0 50311-2 0 9996

TLE line 2: 2 31098 98.8710 48.8960 0012425 58.7299 301.5108 14.49654959961892

Live tracking on map

Real-time ground track for satellite FENGYUN 1C DEB.

In-orbit conjunctions

A list of the most updated potential collisions computed for object FENGYUN 1C DEB.

Target Orbit TCA Probability of collision Miss distance Type
CZ-6A DEB LEO 2025-02-21 05:03:18 0.000154612 872.0 (m) DEBRIS
SPOT 1 SSO 2024-11-02 04:55:14 0.0001101157 81.0 (m) PAYLOAD
FENGYUN 1C DEB SSO 2024-10-13 16:30:08 0.0001038924 285.0 (m) DEBRIS
COSMOS 2251 LEO 2024-07-27 04:11:57 0.0001353958 731.0 (m) PAYLOAD
ALEXIS LEO 2024-07-08 02:03:01 0.0005791481 153.0 (m) PAYLOAD

Associated space launch

Chinese polar orbiting meteorological satellite

FENGYUN 1C DEB was lifted into orbit during the mission ‘Long March 4B | Feng Yun 1C’, on board a Long March 4B space rocket.

The launch took place on May 10, 1999, 1:33 a.m. from Launch Complex 7.

For more information about the launch, click the button.

Launch to space Long March 4B | Feng Yun 1C
Long March 4B | Feng Yun 1C

Agency: N/A

Status: Launch Successful

Launch date: May 10, 1999, 1:33 a.m. UTC

Rocket: Long March 4B

Launch pad: Launch Complex 7

Location: Taiyuan Satellite Launch Center, People's Republic of China

...

Latest news about this satellite

There are no fresh news available about this satellite. Check back as we update our databases every day.


Newsletter sign-up

Weekly statistics, charts and insights to help you stay on top of the space industry.